ANA2520 RJTT-KDEN

Flight info

Callsign ANA2520
Flight time 3h 28m
Altitude 33000
Route GUSRO NANAC ONEMU 43E50 OPULO 48E60 PASRO DCT POWAL DCT PLADO/N0494F350 DCT GICHY DCT 55N70 DCT SETIE DCT 55N50 DCT NAKBI/N0476F370 DCT YZT DCT ROYST DCT ARRUE DCT ZAXUL DCT LEZLE DCT BAXGO DCT YOYYU DCT MJANE FLATI4
Aircraft B77W/H-SDE1E2E3FGHIJ2J3J4J5M1RWXY/LB1D1

Departure

Time 2026-05-06 11:24
Airport Tokyo Haneda International Airport (RJTT)

Arrival

Time 2026-05-06 14:52
Airport Denver International Airport (KDEN)
Time Latitude Longitude Altitude Speed Heading
2026-05-06 10:49 35.54648 139.76972 28 ft 0 kts 240°
2026-05-06 11:07 35.54652 139.76978 27 ft 3 kts 242°
2026-05-06 11:07 35.54660 139.77001 28 ft 3 kts 251°
2026-05-06 11:08 35.54666 139.77024 28 ft 3 kts 262°
2026-05-06 11:08 35.54667 139.77049 28 ft 3 kts 277°
2026-05-06 11:08 35.54663 139.77073 27 ft 3 kts 293°
2026-05-06 11:08 35.54653 139.77094 27 ft 3 kts 309°
2026-05-06 11:09 35.54640 139.77112 26 ft 3 kts 321°
2026-05-06 11:09 35.54623 139.77127 26 ft 3 kts 327°
2026-05-06 11:09 35.54608 139.77138 26 ft 3 kts 327°
2026-05-06 11:09 35.54591 139.77152 25 ft 3 kts 328°
2026-05-06 11:10 35.54574 139.77165 26 ft 3 kts 328°
2026-05-06 11:10 35.54557 139.77178 26 ft 3 kts 329°
2026-05-06 11:10 35.54539 139.77190 27 ft 3 kts 330°
2026-05-06 11:10 35.54521 139.77203 26 ft 3 kts 330°
2026-05-06 11:11 35.54504 139.77215 26 ft 3 kts 331°
2026-05-06 11:11 35.54486 139.77227 26 ft 3 kts 331°
2026-05-06 11:11 35.54474 139.77235 26 ft 0 kts 330°
2026-05-06 11:14 35.54487 139.77226 26 ft 6 kts 333°
2026-05-06 11:15 35.54541 139.77221 27 ft 9 kts 20°
2026-05-06 11:15 35.54582 139.77282 20 ft 9 kts 59°
2026-05-06 11:15 35.54614 139.77351 28 ft 9 kts 60°
2026-05-06 11:15 35.54646 139.77419 28 ft 9 kts 59°
2026-05-06 11:16 35.54680 139.77487 28 ft 9 kts 58°
2026-05-06 11:16 35.54727 139.77537 28 ft 9 kts
2026-05-06 11:16 35.54787 139.77511 28 ft 9 kts 330°
2026-05-06 11:16 35.54844 139.77471 28 ft 9 kts 329°
2026-05-06 11:17 35.54900 139.77429 28 ft 9 kts 329°
2026-05-06 11:17 35.54956 139.77388 28 ft 9 kts 329°
2026-05-06 11:17 35.55013 139.77348 28 ft 9 kts 330°
2026-05-06 11:17 35.55069 139.77308 28 ft 9 kts 330°
2026-05-06 11:18 35.55126 139.77268 28 ft 9 kts 330°
2026-05-06 11:18 35.55183 139.77228 28 ft 9 kts 330°
2026-05-06 11:18 35.55239 139.77188 28 ft 9 kts 330°
2026-05-06 11:18 35.55296 139.77148 28 ft 9 kts 330°
2026-05-06 11:19 35.55354 139.77107 28 ft 10 kts 330°
2026-05-06 11:19 35.55418 139.77062 28 ft 11 kts 330°
2026-05-06 11:19 35.55488 139.77012 27 ft 10 kts 330°
2026-05-06 11:19 35.55554 139.76965 27 ft 12 kts 330°
2026-05-06 11:20 35.55626 139.76905 28 ft 13 kts 313°
2026-05-06 11:20 35.55681 139.76815 30 ft 13 kts 306°
2026-05-06 11:20 35.55738 139.76718 28 ft 15 kts 305°
2026-05-06 11:20 35.55776 139.76657 27 ft 6 kts 322°
2026-05-06 11:21 35.55821 139.76660 27 ft 7 kts 19°
2026-05-06 11:21 35.55863 139.76695 27 ft 8 kts 35°
2026-05-06 11:21 35.55909 139.76735 27 ft 8 kts 35°
2026-05-06 11:21 35.55941 139.76763 27 ft 9 kts 35°
2026-05-06 11:22 35.55984 139.76800 28 ft 7 kts 35°
2026-05-06 11:22 35.56022 139.76833 29 ft 7 kts 37°
2026-05-06 11:22 35.56029 139.76884 29 ft 7 kts 124°
2026-05-06 11:22 35.55987 139.76919 29 ft 7 kts 150°
2026-05-06 11:23 35.55922 139.76964 30 ft 21 kts 150°
2026-05-06 11:23 35.55655 139.77152 29 ft 79 kts 150°
2026-05-06 11:23 35.54964 139.77642 30 ft 149 kts 149°
2026-05-06 11:23 35.53897 139.78400 54 ft 199 kts 150°
2026-05-06 11:24 35.52708 139.79254 664 ft 196 kts 151°
2026-05-06 11:24 35.51516 139.80090 1364 ft 195 kts 152°
2026-05-06 11:24 35.50329 139.80928 1970 ft 204 kts 153°
2026-05-06 11:24 35.49012 139.81796 2107 ft 225 kts 163°
2026-05-06 11:25 35.47429 139.81871 2374 ft 237 kts 199°
2026-05-06 11:25 35.46093 139.80709 2922 ft 247 kts 235°
2026-05-06 11:25 35.45460 139.78759 3589 ft 249 kts 253°
2026-05-06 11:25 35.45022 139.76673 4209 ft 253 kts 257°
2026-05-06 11:26 35.45100 139.74487 4813 ft 265 kts 286°
2026-05-06 11:26 35.46087 139.72559 5548 ft 273 kts 314°
2026-05-06 11:26 35.47739 139.71355 6244 ft 283 kts 342°
2026-05-06 11:26 35.49692 139.70932 6772 ft 288 kts 349°
2026-05-06 11:27 35.51690 139.70574 7388 ft 291 kts 348°
2026-05-06 11:27 35.53686 139.70205 8103 ft 291 kts 347°
2026-05-06 11:27 35.55629 139.69633 8689 ft 284 kts 327°
2026-05-06 11:27 35.57087 139.68126 9201 ft 276 kts 300°
2026-05-06 11:28 35.58019 139.66105 9874 ft 271 kts 292°
2026-05-06 11:28 35.58884 139.64019 10421 ft 278 kts 292°
2026-05-06 11:28 35.59787 139.61814 10575 ft 300 kts 292°
2026-05-06 11:28 35.60756 139.59446 10759 ft 321 kts 293°
2026-05-06 11:29 35.61801 139.56905 10931 ft 343 kts 293°
2026-05-06 11:29 35.62902 139.54247 11375 ft 354 kts 294°
2026-05-06 11:29 35.64033 139.51520 11993 ft 362 kts 294°
2026-05-06 11:29 35.65170 139.48733 12668 ft 363 kts 291°
2026-05-06 11:30 35.65831 139.45732 13263 ft 365 kts 271°
2026-05-06 11:30 35.65812 139.42622 13875 ft 367 kts 268°
2026-05-06 11:30 35.65816 139.39489 14500 ft 373 kts 270°
2026-05-06 11:30 35.65911 139.36305 15234 ft 371 kts 276°
2026-05-06 11:31 35.66673 139.33239 15774 ft 383 kts 295°
2026-05-06 11:31 35.68268 139.30580 16470 ft 392 kts 312°
2026-05-06 11:31 35.70478 139.28559 17155 ft 403 kts 329°
2026-05-06 11:31 35.73159 139.27427 17825 ft 415 kts 347°
2026-05-06 11:32 35.76087 139.27460 18471 ft 430 kts
2026-05-06 11:32 35.78922 139.28799 18975 ft 445 kts 28°
2026-05-06 11:32 35.81345 139.31244 19345 ft 455 kts 41°
2026-05-06 11:32 35.83635 139.34010 19642 ft 466 kts 42°
2026-05-06 11:33 35.85950 139.36860 20092 ft 473 kts 43°
2026-05-06 11:33 35.88266 139.39718 20563 ft 479 kts 42°
2026-05-06 11:33 35.90645 139.42635 20994 ft 486 kts 42°
2026-05-06 11:33 35.93069 139.45584 21465 ft 491 kts 41°
2026-05-06 11:34 35.95523 139.48546 21926 ft 497 kts 40°
2026-05-06 11:34 35.98019 139.51543 22331 ft 504 kts 40°
2026-05-06 11:34 36.00552 139.54577 22703 ft 511 kts 40°
2026-05-06 11:34 36.03132 139.57665 23087 ft 518 kts 39°
2026-05-06 11:35 36.05736 139.60785 23487 ft 524 kts 39°
2026-05-06 11:35 36.08373 139.63948 23853 ft 530 kts 39°
2026-05-06 11:35 36.10994 139.67098 24204 ft 535 kts 39°
2026-05-06 11:35 36.13698 139.70355 24606 ft 538 kts 39°
2026-05-06 11:36 36.16355 139.73558 25010 ft 541 kts 39°
2026-05-06 11:36 36.19065 139.76829 25392 ft 545 kts 39°
2026-05-06 11:36 36.21795 139.80125 25720 ft 550 kts 39°
2026-05-06 11:36 36.24543 139.83447 26077 ft 554 kts 39°
2026-05-06 11:37 36.27309 139.86794 26457 ft 557 kts 40°
2026-05-06 11:37 36.30088 139.90162 26967 ft 557 kts 40°
2026-05-06 11:37 36.32855 139.93520 27468 ft 557 kts 40°
2026-05-06 11:37 36.35637 139.96897 27715 ft 563 kts 40°
2026-05-06 11:38 36.38455 140.00319 27967 ft 569 kts 40°
2026-05-06 11:38 36.41261 140.03729 28255 ft 573 kts 40°
2026-05-06 11:38 36.44122 140.07212 28583 ft 576 kts 40°
2026-05-06 11:38 36.46987 140.10706 28880 ft 579 kts 40°
2026-05-06 11:39 36.49866 140.14220 29145 ft 583 kts 40°
2026-05-06 11:39 36.52766 140.17763 29380 ft 587 kts 40°
2026-05-06 11:39 36.55683 140.21332 29683 ft 589 kts 40°
2026-05-06 11:39 36.58606 140.24913 30078 ft 589 kts 40°
2026-05-06 11:40 36.61534 140.28504 30466 ft 589 kts 40°
2026-05-06 11:40 36.64446 140.32080 30809 ft 589 kts 40°
2026-05-06 11:40 36.67374 140.35678 31127 ft 590 kts 40°
2026-05-06 11:40 36.70295 140.39270 31375 ft 592 kts 40°
2026-05-06 11:41 36.73228 140.42880 31711 ft 592 kts 40°
2026-05-06 11:41 36.76157 140.46494 32011 ft 592 kts 40°
2026-05-06 11:41 36.79086 140.50109 32357 ft 592 kts 39°
2026-05-06 11:41 36.82009 140.53721 32711 ft 591 kts 39°
2026-05-06 11:42 36.84932 140.57336 33026 ft 591 kts 39°
2026-05-06 11:42 36.87861 140.60962 33142 ft 595 kts 39°
2026-05-06 11:42 36.90807 140.64610 33159 ft 596 kts 39°
2026-05-06 11:43 36.96664 140.71889 33156 ft 591 kts 39°
2026-05-06 11:43 37.02443 140.79089 33188 ft 589 kts 39°
2026-05-06 11:44 37.11157 140.89964 33174 ft 589 kts 39°
2026-05-06 11:44 37.16958 140.97224 33149 ft 590 kts 39°
2026-05-06 11:45 37.22766 141.04510 33154 ft 590 kts 39°
2026-05-06 11:45 37.28574 141.11815 33172 ft 591 kts 39°
2026-05-06 11:46 37.34387 141.19144 33143 ft 592 kts 39°
2026-05-06 11:46 37.40174 141.26456 33157 ft 593 kts 39°
2026-05-06 11:47 37.52151 141.41645 33150 ft 595 kts 39°
2026-05-06 11:47 37.75452 141.71406 33147 ft 596 kts 40°
2026-05-06 11:48 37.98763 142.01466 33151 ft 598 kts 40°
2026-05-06 11:48 38.22014 142.31735 33045 ft 601 kts 40°
2026-05-06 11:49 38.33590 142.46925 32939 ft 592 kts 40°
2026-05-06 11:49 38.44950 142.61898 33145 ft 584 kts 40°
2026-05-06 11:49 38.67697 142.92086 33163 ft 597 kts 40°
2026-05-06 11:50 38.79094 143.07337 33113 ft 586 kts 40°
2026-05-06 11:50 38.90261 143.22362 33127 ft 579 kts 41°
2026-05-06 11:50 39.00436 143.38719 33178 ft 591 kts 47°
2026-05-06 11:50 39.10642 143.55621 33201 ft 603 kts 47°
2026-05-06 11:51 39.31233 143.89672 33092 ft 590 kts 47°
2026-05-06 11:51 39.41084 144.06107 33176 ft 568 kts 47°
2026-05-06 11:51 39.50717 144.22234 33182 ft 568 kts 47°
2026-05-06 11:52 39.60440 144.38602 33274 ft 580 kts 47°
2026-05-06 11:52 39.70337 144.55367 33248 ft 586 kts 48°
2026-05-06 11:52 39.80115 144.72028 33218 ft 572 kts 49°
2026-05-06 11:52 39.89474 144.88052 32981 ft 549 kts 49°
2026-05-06 11:53 39.98612 145.03758 33101 ft 542 kts 49°
2026-05-06 11:53 40.07850 145.19706 33278 ft 559 kts 49°
2026-05-06 11:53 40.17297 145.36126 33067 ft 567 kts 49°
2026-05-06 11:53 40.26576 145.52354 33033 ft 547 kts 50°
2026-05-06 11:54 40.35490 145.68001 33017 ft 527 kts 50°
2026-05-06 11:54 40.44280 145.83494 33104 ft 532 kts 50°
2026-05-06 11:54 40.53201 145.99307 33199 ft 545 kts 50°
2026-05-06 11:54 40.62258 146.15456 33224 ft 549 kts 50°
2026-05-06 11:55 40.71256 146.31584 33117 ft 539 kts 50°
2026-05-06 11:55 40.80041 146.47404 33149 ft 530 kts 51°
2026-05-06 11:55 40.97278 146.78672 33193 ft 530 kts 51°
2026-05-06 11:56 41.14776 147.10754 33128 ft 536 kts 51°
2026-05-06 11:56 41.23399 147.26690 33119 ft 524 kts 51°
2026-05-06 11:56 41.31788 147.42268 33129 ft 515 kts 51°
2026-05-06 11:57 41.48585 147.73694 33170 ft 529 kts 52°
2026-05-06 11:57 41.57096 147.89752 33069 ft 527 kts 52°
2026-05-06 11:57 41.65459 148.05611 33091 ft 514 kts 52°
2026-05-06 11:58 41.83535 148.35035 33169 ft 516 kts 42°
2026-05-06 11:58 41.93509 148.48685 33288 ft 519 kts 43°
2026-05-06 11:58 42.03566 148.62657 33143 ft 516 kts 43°
2026-05-06 11:59 42.13433 148.76416 33092 ft 505 kts 43°
2026-05-06 11:59 42.23116 148.89975 33021 ft 500 kts 43°
2026-05-06 11:59 42.42654 149.17530 33202 ft 515 kts 43°
2026-05-06 12:00 42.62386 149.45645 33060 ft 506 kts 43°
2026-05-06 12:00 42.81696 149.73411 33184 ft 511 kts 43°
2026-05-06 12:01 42.91556 149.87699 33115 ft 523 kts 43°
2026-05-06 12:01 43.01480 150.02126 33132 ft 518 kts 42°
2026-05-06 12:01 43.11600 150.16051 32919 ft 510 kts 41°
2026-05-06 12:01 43.21552 150.29794 32948 ft 507 kts 41°
2026-05-06 12:02 43.31359 150.43468 33255 ft 514 kts 41°
2026-05-06 12:02 43.41527 150.57712 33124 ft 526 kts 41°
2026-05-06 12:02 43.61656 150.86142 33153 ft 507 kts 41°
2026-05-06 12:03 43.81491 151.14415 33066 ft 521 kts 41°
2026-05-06 12:03 43.91577 151.28917 32950 ft 519 kts 41°
2026-05-06 12:03 44.01483 151.43234 32990 ft 509 kts 41°
2026-05-06 12:04 44.21118 151.71804 33179 ft 518 kts 42°
2026-05-06 12:04 44.41083 152.01178 32993 ft 524 kts 42°
2026-05-06 12:05 44.50968 152.15843 32948 ft 512 kts 42°
2026-05-06 12:05 44.60731 152.30385 33004 ft 515 kts 41°
2026-05-06 12:05 44.70648 152.45238 33051 ft 526 kts 42°
2026-05-06 12:05 44.80717 152.60412 32960 ft 531 kts 42°
2026-05-06 12:06 44.90488 152.75224 32895 ft 521 kts 42°
2026-05-06 12:06 44.95411 152.82710 33001 ft 520 kts 42°
2026-05-06 12:07 45.00343 152.90227 32996 ft 522 kts 42°
2026-05-06 12:07 45.05902 152.98726 33010 ft 524 kts 42°
2026-05-06 12:08 45.25399 153.28757 32993 ft 529 kts 42°
2026-05-06 12:08 45.45289 153.59735 32962 ft 532 kts 42°
2026-05-06 12:09 45.62716 153.93863 32958 ft 541 kts 54°
2026-05-06 12:09 45.78569 154.30521 32963 ft 541 kts 53°
2026-05-06 12:10 45.94310 154.67314 32956 ft 541 kts 53°
2026-05-06 12:10 46.09938 155.04328 32988 ft 541 kts 53°
2026-05-06 12:11 46.17721 155.22946 32871 ft 542 kts 53°
2026-05-06 12:11 46.25473 155.41618 32839 ft 542 kts 53°
2026-05-06 12:11 46.40874 155.79089 32850 ft 540 kts 53°
2026-05-06 12:12 46.56103 156.16651 32893 ft 539 kts 52°
2026-05-06 12:12 46.71093 156.54128 32901 ft 538 kts 52°
2026-05-06 12:13 46.86044 156.92032 32890 ft 539 kts 52°
2026-05-06 12:13 47.00873 157.30156 32916 ft 539 kts 52°
2026-05-06 12:14 47.15613 157.68591 32892 ft 541 kts 52°
2026-05-06 12:14 47.30209 158.07196 32842 ft 544 kts 52°
2026-05-06 12:15 47.44794 158.46345 32879 ft 544 kts 52°
2026-05-06 12:15 47.59318 158.85907 32844 ft 548 kts 52°
2026-05-06 12:16 47.73761 159.25842 32841 ft 550 kts 52°
2026-05-06 12:16 47.88120 159.66160 32828 ft 553 kts 53°
2026-05-06 12:17 48.02711 160.06831 32834 ft 551 kts 49°
2026-05-06 12:17 48.18859 160.45830 32897 ft 553 kts 49°
2026-05-06 12:18 48.35366 160.84445 32808 ft 550 kts 45°
2026-05-06 12:18 48.44166 161.03411 32705 ft 553 kts 46°
2026-05-06 12:18 48.52832 161.22461 32795 ft 550 kts 46°
2026-05-06 12:19 48.70088 161.60746 32771 ft 549 kts 47°
2026-05-06 12:19 48.74683 161.71030 32768 ft 550 kts 47°
2026-05-06 12:20 48.78960 161.80642 32750 ft 549 kts 47°
2026-05-06 12:20 48.81094 161.85449 32852 ft 551 kts 47°
2026-05-06 12:20 48.83232 161.90271 33156 ft 551 kts 48°
2026-05-06 12:21 48.85364 161.95092 33583 ft 548 kts 48°
2026-05-06 12:21 48.87475 161.99881 33985 ft 545 kts 49°
2026-05-06 12:21 48.89577 162.04658 34363 ft 542 kts 49°
2026-05-06 12:21 48.91669 162.09417 34706 ft 539 kts 49°
2026-05-06 12:22 48.95856 162.18947 34765 ft 543 kts 49°
2026-05-06 12:22 49.00065 162.28579 34735 ft 535 kts 50°
2026-05-06 12:23 49.15090 162.63221 34758 ft 530 kts 50°
2026-05-06 12:23 49.23239 162.82198 34861 ft 537 kts 50°
2026-05-06 12:23 49.31493 163.01564 34811 ft 544 kts 51°
2026-05-06 12:24 49.39593 163.20729 34703 ft 538 kts 51°
2026-05-06 12:24 49.47732 163.40106 34696 ft 528 kts 51°
2026-05-06 12:24 49.63551 163.78153 34756 ft 534 kts 52°
2026-05-06 12:25 49.79632 164.17438 34729 ft 538 kts 53°
2026-05-06 12:25 49.87405 164.36640 34578 ft 527 kts 53°
2026-05-06 12:25 49.95094 164.55761 34596 ft 518 kts 53°
2026-05-06 12:26 50.10424 164.94300 34647 ft 533 kts 54°
2026-05-06 12:26 50.25691 165.33587 34604 ft 519 kts 56°
2026-05-06 12:27 50.40312 165.72085 34624 ft 517 kts 56°
2026-05-06 12:27 50.47701 165.91751 34545 ft 528 kts 56°
2026-05-06 12:27 50.55126 166.11675 34489 ft 527 kts 57°
2026-05-06 12:28 50.62413 166.31385 34622 ft 513 kts 57°
2026-05-06 12:28 50.69449 166.50540 34648 ft 511 kts 57°
2026-05-06 12:28 50.83805 166.90084 34686 ft 527 kts 58°
2026-05-06 12:29 50.98127 167.30173 34505 ft 515 kts 58°
2026-05-06 12:29 51.12019 167.69651 34570 ft 514 kts 59°
2026-05-06 12:30 51.19026 167.89803 34607 ft 525 kts 59°
2026-05-06 12:30 51.26070 168.10231 34580 ft 525 kts 60°
2026-05-06 12:30 51.33012 168.30530 34570 ft 512 kts 60°
2026-05-06 12:30 51.39681 168.50176 34579 ft 506 kts 60°
2026-05-06 12:31 51.53163 168.90369 34751 ft 520 kts 61°
2026-05-06 12:31 51.60026 169.11089 34562 ft 524 kts 61°
2026-05-06 12:31 51.66785 169.31663 34432 ft 514 kts 61°
2026-05-06 12:32 51.73353 169.51818 34503 ft 502 kts 62°
2026-05-06 12:32 51.79832 169.71865 34594 ft 507 kts 62°
2026-05-06 12:32 51.93008 170.13141 34668 ft 517 kts 63°
2026-05-06 12:33 51.99501 170.33742 34546 ft 508 kts 63°
2026-05-06 12:33 52.05767 170.53790 34528 ft 500 kts 64°
2026-05-06 12:33 52.15517 170.96356 34578 ft 512 kts 77°
2026-05-06 12:34 52.22264 171.41424 34562 ft 504 kts 78°
2026-05-06 12:34 52.25531 171.63506 34453 ft 496 kts 78°
2026-05-06 12:34 52.28699 171.85247 34619 ft 492 kts 78°
2026-05-06 12:35 52.31858 172.07233 34677 ft 503 kts 78°
2026-05-06 12:35 52.35041 172.29703 34685 ft 510 kts 79°
2026-05-06 12:35 52.38199 172.52319 34498 ft 504 kts 79°
2026-05-06 12:35 52.41230 172.74361 34518 ft 489 kts 79°
2026-05-06 12:36 52.47118 173.18191 34748 ft 499 kts 80°
2026-05-06 12:36 52.50052 173.40529 34558 ft 510 kts 80°
2026-05-06 12:36 52.52971 173.63078 34469 ft 499 kts 81°
2026-05-06 12:37 52.55775 173.85112 34514 ft 486 kts 81°
2026-05-06 12:37 52.58500 174.06889 34732 ft 488 kts 81°
2026-05-06 12:37 52.61234 174.29085 34670 ft 502 kts 81°
2026-05-06 12:37 52.63984 174.51740 34559 ft 502 kts 82°
2026-05-06 12:38 52.68287 174.73477 34423 ft 494 kts 72°
2026-05-06 12:38 52.73108 174.94434 34471 ft 486 kts 72°
2026-05-06 12:38 52.77790 175.15397 34646 ft 491 kts 73°
2026-05-06 12:38 52.82480 175.36620 34648 ft 502 kts 73°
2026-05-06 12:39 52.91931 175.79985 34612 ft 492 kts 73°
2026-05-06 12:39 53.00949 176.22289 34697 ft 487 kts 75°
2026-05-06 12:40 53.05456 176.43769 34688 ft 498 kts 75°
2026-05-06 12:40 53.09997 176.65620 34646 ft 498 kts 75°
2026-05-06 12:40 53.18748 177.08428 34735 ft 480 kts 76°
2026-05-06 12:41 53.27352 177.51494 34660 ft 494 kts 76°
2026-05-06 12:41 53.35781 177.94568 34706 ft 478 kts 77°
2026-05-06 12:42 53.43929 178.37222 34819 ft 489 kts 77°
2026-05-06 12:42 53.52077 178.80788 34629 ft 484 kts 78°
2026-05-06 12:43 53.55996 179.02108 34776 ft 468 kts 78°
2026-05-06 12:43 53.59749 179.22822 34821 ft 472 kts 78°
2026-05-06 12:43 53.67442 179.65946 34872 ft 483 kts 79°
2026-05-06 12:44 53.71227 179.87513 34744 ft 473 kts 79°
2026-05-06 12:44 53.74878 -179.91410 34828 ft 460 kts 80°
2026-05-06 12:44 53.78639 -179.69365 34885 ft 468 kts 80°
2026-05-06 12:45 53.81069 -179.54999 34877 ft 473 kts 80°
2026-05-06 12:46 53.91744 -178.90520 34864 ft 473 kts 81°
2026-05-06 12:46 53.98666 -178.47347 34931 ft 473 kts 81°
2026-05-06 12:47 54.05441 -178.03968 34877 ft 475 kts 81°
2026-05-06 12:47 54.12048 -177.60541 34968 ft 473 kts 81°
2026-05-06 12:48 54.18511 -177.16878 34934 ft 476 kts 81°
2026-05-06 12:48 54.24846 -176.72866 34861 ft 478 kts 81°
2026-05-06 12:49 54.31001 -176.28872 35018 ft 477 kts 81°
2026-05-06 12:49 54.37029 -175.84482 35095 ft 478 kts 81°
2026-05-06 12:50 54.40618 -175.57399 35063 ft 481 kts 81°
2026-05-06 12:50 54.42085 -175.46179 35055 ft 481 kts 80°
2026-05-06 12:51 54.43541 -175.34966 35050 ft 481 kts 80°
2026-05-06 12:51 54.44987 -175.23738 35053 ft 481 kts 80°
2026-05-06 12:52 54.46423 -175.12499 35039 ft 480 kts 80°
2026-05-06 12:52 54.47606 -175.03168 35058 ft 480 kts 80°
2026-05-06 12:53 54.49368 -174.89155 35059 ft 481 kts 80°
2026-05-06 12:53 54.51181 -174.74592 35063 ft 481 kts 80°
2026-05-06 12:54 54.52573 -174.63304 35061 ft 481 kts 81°
2026-05-06 12:54 54.53953 -174.52015 35066 ft 482 kts 80°
2026-05-06 12:55 54.55327 -174.40690 35078 ft 483 kts 80°
2026-05-06 12:55 54.56692 -174.29337 35075 ft 485 kts 81°
2026-05-06 12:56 54.58044 -174.17995 35079 ft 486 kts 81°
2026-05-06 12:56 54.62747 -173.77787 35076 ft 489 kts 81°
2026-05-06 12:57 54.67976 -173.31562 35093 ft 491 kts 81°
2026-05-06 12:57 54.73058 -172.84931 35081 ft 495 kts 81°
2026-05-06 12:58 54.77982 -172.37995 35122 ft 497 kts 81°
2026-05-06 12:58 54.82759 -171.90591 35137 ft 500 kts 81°
2026-05-06 12:59 54.87338 -171.43209 35144 ft 502 kts 81°
2026-05-06 12:59 54.91775 -170.95247 35145 ft 502 kts 80°
2026-05-06 13:00 54.96027 -170.47127 35146 ft 502 kts 80°
2026-05-06 13:00 55.00080 -169.99048 35165 ft 501 kts 80°
2026-05-06 13:01 55.02618 -169.50586 35175 ft 501 kts 83°
2026-05-06 13:01 55.05001 -169.02213 35166 ft 500 kts 83°
2026-05-06 13:02 55.07166 -168.54195 35166 ft 499 kts 83°
2026-05-06 13:02 55.09154 -168.05811 35171 ft 499 kts 83°
2026-05-06 13:03 55.10959 -167.57152 35182 ft 499 kts 83°
2026-05-06 13:03 55.12554 -167.08953 35180 ft 500 kts 83°
2026-05-06 13:04 55.13966 -166.60418 35213 ft 500 kts 83°
2026-05-06 13:04 55.15189 -166.11738 35195 ft 499 kts 83°
2026-05-06 13:05 55.16214 -165.63202 35186 ft 499 kts 84°
2026-05-06 13:05 55.17046 -165.14685 35198 ft 499 kts 84°
2026-05-06 13:06 55.17681 -164.66447 35191 ft 499 kts 84°
2026-05-06 13:06 55.18129 -164.17847 35188 ft 499 kts 85°
2026-05-06 13:07 55.18384 -163.69314 35198 ft 499 kts 86°
2026-05-06 13:07 55.18446 -163.20748 35185 ft 499 kts 88°
2026-05-06 13:08 55.18314 -162.72074 35195 ft 500 kts 88°
2026-05-06 13:08 55.17987 -162.23261 35198 ft 502 kts 88°
2026-05-06 13:09 55.17467 -161.74612 35178 ft 501 kts 90°
2026-05-06 13:09 55.16752 -161.25883 35168 ft 500 kts 91°
2026-05-06 13:10 55.16646 -160.77359 35194 ft 497 kts 86°
2026-05-06 13:10 55.18008 -160.28978 35160 ft 496 kts 87°
2026-05-06 13:11 55.19101 -159.80765 35151 ft 495 kts 87°
2026-05-06 13:11 55.19999 -159.32941 35134 ft 495 kts 88°
2026-05-06 13:12 55.20714 -158.84742 35125 ft 495 kts 88°
2026-05-06 13:12 55.21239 -158.36482 35136 ft 496 kts 88°
2026-05-06 13:13 55.21575 -157.88134 35131 ft 497 kts 89°
2026-05-06 13:13 55.21719 -157.39619 35132 ft 498 kts 89°
2026-05-06 13:14 55.21670 -156.90946 35136 ft 500 kts 89°
2026-05-06 13:14 55.21426 -156.42026 35137 ft 502 kts 90°
2026-05-06 13:15 55.20989 -155.93372 35133 ft 503 kts 90°
2026-05-06 13:15 55.20353 -155.44353 35121 ft 505 kts 90°
2026-05-06 13:16 55.19516 -154.95122 35126 ft 507 kts 91°
2026-05-06 13:16 55.18476 -154.45724 35124 ft 508 kts 91°
2026-05-06 13:17 55.17231 -153.96099 35125 ft 511 kts 92°
2026-05-06 13:17 55.15778 -153.46354 35123 ft 513 kts 93°
2026-05-06 13:18 55.14116 -152.96407 35113 ft 515 kts 94°
2026-05-06 13:18 55.12239 -152.46264 35112 ft 518 kts 95°
2026-05-06 13:19 55.10160 -151.96241 35108 ft 520 kts 95°
2026-05-06 13:19 55.07857 -151.45875 35134 ft 521 kts 96°
2026-05-06 13:20 55.05336 -150.95344 35129 ft 522 kts 96°
2026-05-06 13:20 55.02607 -150.44910 35131 ft 523 kts 97°
2026-05-06 13:21 54.99495 -149.94564 35128 ft 521 kts 102°
2026-05-06 13:21 54.93987 -149.44973 35140 ft 521 kts 104°
2026-05-06 13:22 54.88404 -148.95798 35086 ft 523 kts 104°
2026-05-06 13:22 54.82572 -148.46388 35174 ft 521 kts 105°
2026-05-06 13:23 54.76535 -147.97091 35135 ft 523 kts 106°
2026-05-06 13:23 54.70286 -147.47827 35121 ft 523 kts 107°
2026-05-06 13:24 54.63845 -146.98788 35207 ft 522 kts 107°
2026-05-06 13:24 54.57217 -146.49984 35207 ft 523 kts 108°
2026-05-06 13:25 54.52686 -146.17504 35189 ft 524 kts 109°
2026-05-06 13:25 54.50961 -146.05319 35213 ft 524 kts 109°
2026-05-06 13:26 54.49218 -145.93112 35355 ft 527 kts 109°
2026-05-06 13:26 54.48340 -145.87002 35657 ft 526 kts 109°
2026-05-06 13:26 54.47463 -145.80905 36004 ft 524 kts 109°
2026-05-06 13:26 54.46584 -145.74823 36385 ft 522 kts 109°
2026-05-06 13:27 54.45706 -145.68771 36718 ft 521 kts 109°
2026-05-06 13:27 54.44826 -145.62735 37029 ft 520 kts 109°
2026-05-06 13:27 54.43951 -145.56756 37160 ft 522 kts 109°
2026-05-06 13:28 54.42167 -145.44658 37212 ft 522 kts 109°
2026-05-06 13:28 54.38450 -145.19674 37214 ft 515 kts 109°
2026-05-06 13:29 54.31225 -144.72272 37230 ft 516 kts 109°
2026-05-06 13:29 54.27547 -144.48653 37336 ft 523 kts 109°
2026-05-06 13:29 54.23722 -144.24433 37268 ft 530 kts 110°
2026-05-06 13:30 54.15958 -143.76280 37135 ft 517 kts 110°
2026-05-06 13:30 54.12081 -143.52769 37239 ft 514 kts 111°
2026-05-06 13:30 54.08128 -143.29145 37293 ft 526 kts 111°
2026-05-06 13:31 53.99889 -142.80808 37297 ft 531 kts 111°
2026-05-06 13:31 53.95731 -142.56899 37117 ft 523 kts 111°
2026-05-06 13:31 53.91594 -142.33444 37251 ft 515 kts 112°
2026-05-06 13:32 53.83175 -141.86673 37352 ft 532 kts 112°
2026-05-06 13:32 53.78769 -141.62625 37250 ft 536 kts 112°
2026-05-06 13:32 53.74328 -141.38685 37211 ft 528 kts 112°
2026-05-06 13:33 53.65531 -140.92220 37367 ft 520 kts 113°
2026-05-06 13:33 53.61004 -140.68760 37295 ft 532 kts 113°
2026-05-06 13:33 53.56349 -140.44886 37333 ft 536 kts 113°
2026-05-06 13:34 53.47019 -139.97912 37208 ft 521 kts 114°
2026-05-06 13:34 53.42366 -139.74930 37371 ft 518 kts 114°
2026-05-06 13:34 53.37652 -139.51928 37424 ft 527 kts 114°
2026-05-06 13:35 53.35124 -139.39691 37383 ft 533 kts 114°
2026-05-06 13:35 53.31393 -139.21750 37321 ft 536 kts 114°
2026-05-06 13:36 53.21542 -138.75133 37198 ft 524 kts 115°
2026-05-06 13:36 53.11670 -138.29523 37389 ft 529 kts 115°
2026-05-06 13:36 53.06540 -138.06207 37239 ft 540 kts 115°
2026-05-06 13:37 53.01341 -137.82807 37308 ft 537 kts 115°
2026-05-06 13:37 52.91071 -137.37388 37332 ft 523 kts 116°
2026-05-06 13:38 52.80566 -136.91941 37421 ft 535 kts 116°
2026-05-06 13:38 52.69674 -136.45770 37395 ft 535 kts 116°
2026-05-06 13:38 52.64251 -136.23155 37259 ft 528 kts 116°
2026-05-06 13:39 52.58842 -136.00838 37372 ft 523 kts 116°
2026-05-06 13:39 52.47765 -135.55843 37456 ft 541 kts 116°
2026-05-06 13:39 52.42024 -135.32855 37334 ft 543 kts 116°
2026-05-06 13:40 52.36305 -135.10187 37266 ft 533 kts 116°
2026-05-06 13:40 52.26910 -134.73471 37385 ft 524 kts 117°
2026-05-06 13:40 52.21194 -134.51429 37436 ft 535 kts 117°
2026-05-06 13:41 52.15289 -134.28866 37390 ft 544 kts 117°
2026-05-06 13:41 52.09315 -134.06255 37284 ft 543 kts 117°
2026-05-06 13:41 52.03361 -133.83939 37254 ft 532 kts 117°
2026-05-06 13:42 51.94338 -133.38463 37377 ft 532 kts 108°
2026-05-06 13:42 51.90159 -133.15144 37339 ft 545 kts 109°
2026-05-06 13:42 51.85859 -132.91503 37320 ft 546 kts 109°
2026-05-06 13:43 51.77286 -132.45212 37307 ft 529 kts 109°
2026-05-06 13:43 51.68641 -131.99699 37412 ft 542 kts 109°
2026-05-06 13:43 51.64102 -131.76218 37290 ft 549 kts 109°
2026-05-06 13:44 51.59543 -131.52911 37190 ft 540 kts 110°
2026-05-06 13:44 51.50479 -131.07429 37374 ft 534 kts 110°
2026-05-06 13:44 51.45840 -130.84555 37350 ft 545 kts 110°
2026-05-06 13:45 51.41077 -130.61331 37266 ft 549 kts 110°
2026-05-06 13:45 51.31586 -130.15843 37210 ft 528 kts 111°
2026-05-06 13:45 51.26860 -129.93585 37247 ft 530 kts 111°
2026-05-06 13:46 51.22040 -129.71132 37320 ft 541 kts 111°
2026-05-06 13:46 51.17140 -129.48543 37114 ft 547 kts 111°
2026-05-06 13:46 51.12178 -129.25908 37108 ft 536 kts 111°
2026-05-06 13:46 51.07261 -129.03733 37141 ft 527 kts 111°
2026-05-06 13:47 51.02257 -128.81416 37291 ft 531 kts 112°
2026-05-06 13:47 50.97217 -128.59168 37227 ft 542 kts 112°
2026-05-06 13:47 50.86992 -128.14712 37136 ft 532 kts 112°
2026-05-06 13:48 50.76720 -127.70989 37237 ft 534 kts 113°
2026-05-06 13:48 50.64796 -127.28385 37164 ft 528 kts 131°
2026-05-06 13:49 50.47157 -126.91431 37230 ft 527 kts 131°
2026-05-06 13:49 50.29472 -126.54517 37099 ft 528 kts 131°
2026-05-06 13:50 50.11790 -126.18138 37162 ft 525 kts 131°
2026-05-06 13:50 49.94052 -125.82139 37105 ft 521 kts 132°
2026-05-06 13:51 49.76391 -125.46779 37104 ft 518 kts 132°
2026-05-06 13:51 49.58743 -125.11901 37195 ft 512 kts 133°
2026-05-06 13:52 49.41101 -124.77582 37118 ft 513 kts 133°
2026-05-06 13:52 49.23309 -124.43397 37097 ft 513 kts 133°
2026-05-06 13:53 49.05567 -124.09234 37108 ft 516 kts 128°
2026-05-06 13:53 48.89768 -123.72748 37120 ft 514 kts 128°
2026-05-06 13:54 48.73825 -123.36673 37088 ft 514 kts 128°
2026-05-06 13:54 48.57897 -123.01092 37139 ft 513 kts 128°
2026-05-06 13:55 48.41788 -122.65576 37132 ft 514 kts 128°
2026-05-06 13:55 48.25547 -122.30237 37158 ft 514 kts 128°
2026-05-06 13:56 48.09180 -121.95082 37141 ft 514 kts 128°
2026-05-06 13:56 47.92681 -121.60097 37173 ft 515 kts 128°
2026-05-06 13:57 47.76013 -121.25203 37213 ft 515 kts 128°
2026-05-06 13:57 47.67633 -121.07828 37076 ft 520 kts 128°
2026-05-06 13:57 47.59180 -120.90409 36934 ft 519 kts 128°
2026-05-06 13:58 47.42346 -120.56048 36902 ft 515 kts 128°
2026-05-06 13:58 47.33930 -120.39031 37005 ft 515 kts 127°
2026-05-06 13:58 47.25442 -120.21967 36947 ft 517 kts 127°
2026-05-06 13:59 47.10447 -119.86111 36950 ft 516 kts 115°
2026-05-06 13:59 46.97614 -119.48249 36925 ft 518 kts 116°
2026-05-06 14:00 46.84690 -119.10815 36952 ft 519 kts 116°
2026-05-06 14:00 46.71546 -118.73284 36965 ft 519 kts 115°
2026-05-06 14:01 46.58268 -118.35901 36955 ft 520 kts 115°
2026-05-06 14:01 46.44883 -117.98740 36987 ft 519 kts 115°
2026-05-06 14:02 46.31388 -117.61788 36974 ft 518 kts 115°
2026-05-06 14:02 46.17818 -117.25128 37008 ft 516 kts 114°
2026-05-06 14:03 46.11087 -117.06457 37016 ft 513 kts 111°
2026-05-06 14:03 46.08084 -116.97147 37005 ft 512 kts 110°
2026-05-06 14:04 46.05095 -116.87926 37017 ft 511 kts 111°
2026-05-06 14:04 46.02032 -116.78684 37028 ft 512 kts 111°
2026-05-06 14:05 45.98941 -116.69457 37013 ft 511 kts 111°
2026-05-06 14:05 45.95838 -116.60222 37047 ft 513 kts 111°
2026-05-06 14:06 45.92761 -116.51087 37034 ft 515 kts 111°
2026-05-06 14:06 45.89637 -116.41846 37044 ft 516 kts 111°
2026-05-06 14:07 45.82433 -116.20650 37084 ft 518 kts 111°
2026-05-06 14:07 45.69732 -115.83699 37100 ft 517 kts 111°
2026-05-06 14:08 45.64289 -115.68020 37073 ft 517 kts 111°
2026-05-06 14:08 45.61080 -115.58820 37085 ft 515 kts 111°
2026-05-06 14:09 45.57900 -115.49734 37083 ft 514 kts 111°
2026-05-06 14:09 45.50039 -115.27402 37128 ft 511 kts 110°
2026-05-06 14:10 45.37254 -114.91472 37107 ft 506 kts 111°
2026-05-06 14:10 45.24417 -114.55857 37183 ft 506 kts 110°
2026-05-06 14:11 45.11304 -114.19961 37107 ft 514 kts 110°
2026-05-06 14:11 45.03633 -114.02855 37054 ft 532 kts 134°
2026-05-06 14:11 44.90328 -113.93433 37039 ft 537 kts 154°
2026-05-06 14:12 44.63082 -113.76805 37024 ft 532 kts 153°
2026-05-06 14:12 44.35568 -113.60033 37102 ft 547 kts 153°
2026-05-06 14:13 44.07806 -113.43289 36961 ft 535 kts 153°
2026-05-06 14:13 43.94886 -113.33832 37053 ft 514 kts 131°
2026-05-06 14:13 43.86600 -113.18353 37339 ft 501 kts 114°
2026-05-06 14:14 43.78963 -113.02050 37098 ft 514 kts 115°
2026-05-06 14:14 43.71094 -112.85628 37132 ft 509 kts 115°
2026-05-06 14:14 43.55474 -112.53200 37150 ft 506 kts 115°
2026-05-06 14:15 43.39796 -112.21005 37257 ft 509 kts 115°
2026-05-06 14:15 43.23711 -111.88337 37224 ft 519 kts 115°
2026-05-06 14:16 43.15624 -111.72075 37119 ft 514 kts 115°
2026-05-06 14:16 43.07641 -111.56090 37229 ft 503 kts 115°
2026-05-06 14:16 42.91766 -111.24515 37189 ft 512 kts 116°
2026-05-06 14:17 42.75378 -110.92321 37163 ft 514 kts 116°
2026-05-06 14:17 42.59333 -110.61115 37111 ft 501 kts 116°
2026-05-06 14:18 42.51311 -110.45613 37217 ft 505 kts 116°
2026-05-06 14:18 42.43136 -110.29923 37297 ft 516 kts 117°
2026-05-06 14:18 42.34774 -110.13951 37167 ft 523 kts 117°
2026-05-06 14:18 42.26403 -109.98072 37186 ft 515 kts 117°
2026-05-06 14:19 42.18126 -109.82433 37081 ft 505 kts 118°
2026-05-06 14:19 42.09965 -109.67076 37084 ft 506 kts 118°
2026-05-06 14:19 42.01692 -109.51594 37214 ft 512 kts 119°
2026-05-06 14:19 41.93251 -109.35882 37252 ft 522 kts 120°
2026-05-06 14:20 41.76266 -109.04537 37196 ft 511 kts 120°
2026-05-06 14:20 41.59584 -108.74028 37280 ft 512 kts 121°
2026-05-06 14:21 41.51038 -108.58522 37212 ft 525 kts 121°
2026-05-06 14:21 41.42328 -108.42805 37223 ft 526 kts 122°
2026-05-06 14:21 41.35407 -108.26450 37205 ft 502 kts 101°
2026-05-06 14:21 41.31367 -108.08779 37173 ft 497 kts 102°
2026-05-06 14:22 41.22661 -107.73544 37160 ft 511 kts 103°
2026-05-06 14:22 41.13592 -107.37401 37105 ft 513 kts 104°
2026-05-06 14:23 41.04616 -107.02194 37189 ft 499 kts 105°
2026-05-06 14:23 40.98131 -106.77052 37140 ft 514 kts 106°
2026-05-06 14:24 40.95800 -106.68082 37161 ft 516 kts 107°
2026-05-06 14:24 40.93451 -106.59078 37156 ft 517 kts 107°
2026-05-06 14:25 40.91100 -106.50101 37146 ft 516 kts 107°
2026-05-06 14:25 40.88778 -106.41259 36282 ft 513 kts 108°
2026-05-06 14:26 40.87608 -106.36817 37229 ft 511 kts 107°
2026-05-06 14:26 40.86438 -106.32378 37168 ft 512 kts 108°
2026-05-06 14:26 40.84078 -106.23579 36787 ft 501 kts 110°
2026-05-06 14:27 40.83167 -106.20715 36369 ft 500 kts 113°
2026-05-06 14:27 40.81701 -106.16603 35552 ft 500 kts 115°
2026-05-06 14:27 40.80146 -106.12464 34146 ft 495 kts 115°
2026-05-06 14:27 40.78610 -106.08358 32563 ft 513 kts 115°
2026-05-06 14:28 40.77054 -106.04102 31680 ft 514 kts 115°
2026-05-06 14:28 40.75533 -105.99862 31146 ft 507 kts 114°
2026-05-06 14:28 40.74048 -105.95681 30713 ft 499 kts 115°
2026-05-06 14:28 40.72586 -105.91573 30246 ft 492 kts 115°
2026-05-06 14:29 40.71135 -105.87513 29628 ft 487 kts 115°
2026-05-06 14:29 40.69690 -105.83491 28948 ft 483 kts 116°
2026-05-06 14:29 40.68256 -105.79504 28282 ft 479 kts 116°
2026-05-06 14:29 40.66848 -105.75592 27567 ft 477 kts 117°
2026-05-06 14:30 40.65407 -105.71593 26873 ft 476 kts 117°
2026-05-06 14:30 40.64008 -105.67714 26267 ft 472 kts 118°
2026-05-06 14:30 40.62606 -105.63832 25733 ft 468 kts 118°
2026-05-06 14:30 40.61209 -105.59971 25202 ft 463 kts 119°
2026-05-06 14:31 40.59830 -105.56166 24648 ft 460 kts 119°
2026-05-06 14:31 40.58454 -105.52375 24143 ft 456 kts 119°
2026-05-06 14:31 40.57091 -105.48623 23608 ft 453 kts 120°
2026-05-06 14:31 40.55734 -105.44892 23025 ft 449 kts 119°
2026-05-06 14:32 40.54392 -105.41211 22513 ft 444 kts 119°
2026-05-06 14:32 40.53064 -105.37571 22018 ft 438 kts 119°
2026-05-06 14:32 40.51763 -105.34005 21821 ft 426 kts 118°
2026-05-06 14:32 40.50498 -105.30543 21670 ft 414 kts 118°
2026-05-06 14:33 40.49266 -105.27173 21532 ft 402 kts 118°
2026-05-06 14:33 40.48073 -105.23915 21389 ft 390 kts 118°
2026-05-06 14:33 40.46911 -105.20749 21265 ft 378 kts 118°
2026-05-06 14:33 40.45590 -105.17880 21085 ft 360 kts 135°
2026-05-06 14:34 40.43709 -105.15821 20770 ft 346 kts 150°
2026-05-06 14:34 40.41736 -105.14051 20453 ft 342 kts 149°
2026-05-06 14:34 40.39784 -105.12275 20126 ft 340 kts 148°
2026-05-06 14:34 40.37874 -105.10523 19818 ft 338 kts 148°
2026-05-06 14:35 40.35934 -105.08733 19487 ft 336 kts 148°
2026-05-06 14:35 40.34052 -105.06993 19158 ft 334 kts 147°
2026-05-06 14:35 40.32157 -105.05237 18838 ft 333 kts 147°
2026-05-06 14:35 40.30268 -105.03487 18532 ft 332 kts 147°
2026-05-06 14:36 40.28362 -105.01721 18164 ft 331 kts 147°
2026-05-06 14:36 40.26511 -105.00006 17838 ft 329 kts 146°
2026-05-06 14:36 40.24638 -104.98274 17371 ft 331 kts 146°
2026-05-06 14:36 40.22756 -104.96535 17011 ft 329 kts 146°
2026-05-06 14:37 40.20896 -104.94817 16717 ft 327 kts 146°
2026-05-06 14:37 40.19047 -104.93109 16436 ft 323 kts 146°
2026-05-06 14:37 40.17144 -104.91589 16143 ft 318 kts 156°
2026-05-06 14:37 40.15127 -104.90443 15862 ft 314 kts 160°
2026-05-06 14:38 40.13102 -104.89393 15587 ft 312 kts 160°
2026-05-06 14:38 40.11095 -104.88332 15310 ft 309 kts 159°
2026-05-06 14:38 40.09127 -104.87253 15043 ft 307 kts 159°
2026-05-06 14:38 40.07188 -104.86171 14774 ft 305 kts 158°
2026-05-06 14:39 40.05246 -104.85080 14501 ft 303 kts 158°
2026-05-06 14:39 40.03317 -104.83987 14213 ft 302 kts 157°
2026-05-06 14:39 40.01395 -104.82887 13962 ft 301 kts 157°
2026-05-06 14:39 39.99478 -104.81791 13664 ft 300 kts 157°
2026-05-06 14:40 39.97568 -104.80725 13367 ft 294 kts 161°
2026-05-06 14:40 39.95573 -104.80325 13109 ft 291 kts 182°
2026-05-06 14:40 39.93515 -104.80437 12880 ft 299 kts 181°
2026-05-06 14:40 39.91429 -104.80527 12596 ft 302 kts 181°
2026-05-06 14:41 39.89335 -104.80601 12320 ft 300 kts 180°
2026-05-06 14:41 39.87258 -104.80666 12077 ft 297 kts 180°
2026-05-06 14:41 39.85202 -104.80725 11795 ft 293 kts 180°
2026-05-06 14:41 39.83204 -104.80780 11532 ft 289 kts 179°
2026-05-06 14:42 39.81185 -104.80833 11266 ft 285 kts 179°
2026-05-06 14:42 39.79248 -104.80885 11003 ft 280 kts 180°
2026-05-06 14:42 39.77305 -104.80899 10757 ft 276 kts 178°
2026-05-06 14:42 39.75405 -104.80964 10525 ft 272 kts 181°
2026-05-06 14:43 39.73533 -104.81036 10316 ft 266 kts 178°
2026-05-06 14:43 39.71699 -104.81033 10110 ft 260 kts 178°
2026-05-06 14:43 39.69913 -104.81025 9946 ft 253 kts 178°
2026-05-06 14:43 39.68183 -104.81018 9793 ft 244 kts 178°
2026-05-06 14:44 39.66527 -104.81010 9717 ft 230 kts 178°
2026-05-06 14:44 39.64972 -104.81008 9739 ft 223 kts 177°
2026-05-06 14:44 39.63394 -104.81005 9628 ft 229 kts 177°
2026-05-06 14:45 39.60345 -104.80820 9534 ft 211 kts 156°
2026-05-06 14:45 39.59207 -104.79707 9553 ft 206 kts 120°
2026-05-06 14:45 39.58786 -104.77959 9574 ft 206 kts 92°
2026-05-06 14:45 39.58757 -104.76067 9514 ft 212 kts 88°
2026-05-06 14:46 39.58777 -104.74194 9445 ft 209 kts 87°
2026-05-06 14:46 39.59107 -104.72430 9374 ft 201 kts 56°
2026-05-06 14:46 39.60100 -104.71192 9398 ft 201 kts 38°
2026-05-06 14:46 39.61320 -104.70239 9270 ft 210 kts 18°
2026-05-06 14:47 39.62774 -104.69999 9220 ft 212 kts
2026-05-06 14:47 39.64250 -104.69919 9089 ft 210 kts
2026-05-06 14:47 39.65687 -104.69883 9007 ft 205 kts
2026-05-06 14:47 39.67098 -104.69864 8980 ft 198 kts
2026-05-06 14:48 39.68453 -104.69849 8773 ft 192 kts
2026-05-06 14:48 39.69759 -104.69836 8492 ft 183 kts
2026-05-06 14:48 39.71029 -104.69821 8239 ft 183 kts
2026-05-06 14:48 39.72307 -104.69806 8004 ft 183 kts
2026-05-06 14:49 39.73547 -104.69793 7753 ft 172 kts
2026-05-06 14:49 39.74697 -104.69780 7509 ft 158 kts
2026-05-06 14:49 39.75744 -104.69769 7328 ft 145 kts
2026-05-06 14:49 39.76732 -104.69757 7141 ft 142 kts
2026-05-06 14:50 39.77705 -104.69745 6940 ft 138 kts
2026-05-06 14:50 39.78666 -104.69734 6790 ft 138 kts
2026-05-06 14:50 39.79624 -104.69724 6597 ft 138 kts
2026-05-06 14:50 39.80588 -104.69713 6378 ft 138 kts
2026-05-06 14:51 39.81553 -104.69702 6133 ft 139 kts
2026-05-06 14:51 39.82518 -104.69691 5934 ft 138 kts
2026-05-06 14:51 39.83467 -104.69680 5723 ft 135 kts
2026-05-06 14:51 39.84411 -104.69670 5556 ft 136 kts
2026-05-06 14:52 39.85366 -104.69658 5391 ft 137 kts
2026-05-06 14:52 39.86226 -104.69647 5368 ft 100 kts
2026-05-06 14:52 39.86713 -104.69639 5368 ft 54 kts
2026-05-06 14:52 39.87054 -104.69636 5370 ft 39 kts
2026-05-06 14:53 39.87290 -104.69581 5369 ft 26 kts 21°
2026-05-06 14:53 39.87425 -104.69487 5366 ft 20 kts 30°
2026-05-06 14:53 39.87509 -104.69386 5368 ft 16 kts 75°
2026-05-06 14:53 39.87510 -104.69240 5371 ft 16 kts 91°
2026-05-06 14:54 39.87509 -104.69128 5371 ft 12 kts 90°
2026-05-06 14:54 39.87508 -104.69018 5368 ft 12 kts 90°
2026-05-06 14:54 39.87507 -104.68908 5368 ft 12 kts 90°
2026-05-06 14:54 39.87507 -104.68798 5368 ft 12 kts 91°
2026-05-06 14:55 39.87505 -104.68689 5368 ft 12 kts 91°
2026-05-06 14:55 39.87504 -104.68579 5368 ft 11 kts 90°
2026-05-06 14:55 39.87477 -104.68498 5366 ft 11 kts 154°
2026-05-06 14:55 39.87404 -104.68491 5369 ft 11 kts 180°
2026-05-06 14:56 39.87330 -104.68491 5369 ft 11 kts 180°
2026-05-06 14:56 39.87258 -104.68492 5369 ft 11 kts 181°
2026-05-06 14:56 39.87183 -104.68494 5369 ft 11 kts 181°
2026-05-06 14:56 39.87111 -104.68496 5369 ft 11 kts 181°
2026-05-06 14:57 39.87036 -104.68498 5369 ft 11 kts 181°
2026-05-06 14:57 39.86964 -104.68497 5369 ft 11 kts 179°